Regional Weather Roundup
Issued by NWS Bismarck, ND

Home | Current Version | Previous Version | Text Only | Print | Product List | Glossary On
Versions: 1 2 3 4 5 6 7 8 9 10 11 12 13 14 15 16 17 18 19 20 21 22 23 24 25 26 27 28 29 30 31 32 33 34 35 36 37 38 39 40 41 42 43 44 45 46 47 48 49 50
000
ASUS43 KBIS 190010
RWRBIS

NWR BROADCAST TEXT
NATIONAL WEATHER SERVICE BISMARCK ND
700 PM CDT SAT APR 18 2015

NOTE: "FAIR" INDICATES FEW OR NO CLOUDS BELOW 12,000 FEET WITH NO
SIGNIFICANT WEATHER AND/OR OBSTRUCTIONS TO VISIBILITY.


CITY           SKY/WX    TMP DP  RH WIND       PRES   REMARKS
WILLISTON      CLOUDY    56  28  34 NW23G32   29.96R
MINOT          LGT RAIN  58  38  47 NW24G31   29.87R
MINOT AFB      CLOUDY    58  40  52 NW20      29.87R
BISMARCK       CLOUDY    54  40  59 S8        29.92S
DICKINSON      RAIN      51  47  86 NW8       29.92R FOG
GARRISON         N/A     56  45  66 W8        29.90R
HETTINGER ARPT CLOUDY    50  43  77 E5        29.91F
JAMESTOWN      CLOUDY    65  28  24 S14G21    29.88F
BEACH          CLOUDY    55  32  41 N25G33    29.98R
CARRINGTON     FAIR      63  28  27 SW9       29.91S
CROSBY         FAIR      55  28  35 NW23      29.96S
HARVEY           N/A    N/A N/A N/A MISG        N/A
HAZEN          MOCLDY    57  36  44 S15       29.90R
LINTON         LGT RAIN  48  48 100 NW9       29.95F
MANDAN         FAIR      50  39  66 S17       29.91F
OAKES            N/A     66  32  28 W6        29.86F
RUGBY            N/A    N/A N/A N/A S14G20    29.83
STANLEY        MOCLDY    50  48  93 N12G20    29.91F
WATFORD CITY   MOCLDY    55  32  41 N21G28    29.93R
$$

CITY           SKY/WX    TMP DP  RH WIND       PRES   REMARKS
GRAND FORKS    CLOUDY    67  29  24 S3        29.89F
GRAND FORKS AF MOSUNNY   67  28  23 S5        29.89F
DEVILS LAKE    PTSUNNY   64  30  27 S12       29.88F
FARGO          CLOUDY    71  28  20 SE13      29.87F
CANDO          FAIR      64  28  25 S21       29.87S
CAVALIER       FAIR      66  28  24 S7        29.88F
GRAFTON        FAIR      66  27  22 S12       29.90F
GWINNER        CLEAR     70  32  24 NW5       29.86F
LANGDON        FAIR      66  28  24 S15G23    29.88F
ROLLA          FAIR      64  25  22 S18       29.84F
WALHALLA       FAIR      66  28  24 S17       29.87F
$$

CITY           SKY/WX    TMP DP  RH WIND       PRES   REMARKS
ABERDEEN       CLOUDY    64  41  42 SW7       29.86S
MOBRIDGE       CLOUDY    51  44  77 N16       29.86F
BUFFALO          N/A     51  41  68 W7        29.87R
RAPID CITY     CLOUDY    46  44  93 NW10      29.91F
GLASGOW        MOSUNNY   58  19  22 NW28G36   30.07S
SIDNEY         CLOUDY    55  27  33 NW18G26   29.99R
WOLF POINT     PTSUNNY   59  27  29 NW18G26   30.04S
GLENDIVE       PTSUNNY   55  27  33 N29G37    30.00S
MILES CITY     MOSUNNY   57  26  30 N31G46    30.04R
BAKER          CLOUDY    56  36  47 N29G41    29.97R
$$

CITY           SKY/WX    TMP DP  RH WIND       PRES   REMARKS
BILLINGS       PTSUNNY   48  30  49 NE16G24   30.18R
GREAT FALLS    CLOUDY    46  29  51 NW8       30.26F
REGINA         PTSUNNY   48  30  49 NW22G37   30.01R
ESTEVAN        CLOUDY    55  30  38 NW22G32   29.94R
$$



USA.gov is the U.S. government's official web portal to all federal, state and local government web resources and services.